KD5MWL-2 Weather Reports


time (UTC)temp
C
wind
direction
speed
KPH
gust
KPH
rain 1hr
cm
rain 24hr
cm
rain mn
cm
humidity
%
barometer
mb
20260502204511 25 350 4.8 16.1 0.00 0.10 0.00 32 1018.7
20260502204011 25 346 6.4 17.7 0.00 0.10 0.00 30 1018.7
20260502203511 25 346 8.0 17.7 0.00 0.10 0.00 31 1018.7
20260502203011 25 353 6.4 16.1 0.00 0.10 0.00 32 1018.7
20260502202533 25 31 4.8 16.1 0.00 0.10 0.00 33 1018.7
20260502202011 25 45 4.8 16.1 0.00 0.13 0.00 32 1018.9
20260502201511 25 360 6.4 17.7 0.00 0.13 0.00 32 1019.0
20260502201011 25 357 6.4 17.7 0.00 0.13 0.00 32 1019.1
20260502200511 25 1 6.4 17.7 0.00 0.13 0.00 31 1019.2
20260502200033 25 34 4.8 11.3 0.00 0.13 0.00 31 1019.2
20260502195511 25 107 3.2 11.3 0.00 0.13 0.00 34 1019.2
20260502195033 25 12 4.8 16.1 0.00 0.13 0.00 32 1019.2
20260502194511 25 349 4.8 16.1 0.00 0.13 0.00 31 1019.4
20260502194032 24 12 6.4 17.7 0.00 0.13 0.00 33 1019.4
20260502193511 24 11 9.7 25.7 0.00 0.13 0.00 32 1019.5
20260502193012 24 358 8.0 25.7 0.00 0.13 0.00 33 1019.5
20260502192512 24 355 4.8 14.5 0.00 0.13 0.00 33 1019.5
20260502192033 24 29 4.8 19.3 0.00 0.13 0.00 35 1019.7
20260502191532 24 52 6.4 19.3 0.00 0.13 0.00 33 1019.7
20260502191012 24 57 8.0 20.9 0.00 0.13 0.00 35 1019.7
20260502190532 23 44 6.4 20.9 0.00 0.15 0.00 34 1019.7
20260502190011 23 21 6.4 16.1 0.00 0.15 0.00 35 1019.7
20260502185532 23 29 8.0 19.3 0.00 0.18 0.00 33 1019.7
20260502185011 23 47 8.0 19.3 0.00 0.18 0.00 34 1019.7
20260502184511 23 37 6.4 20.9 0.00 0.18 0.00 36 1019.8
20260502184012 23 32 6.4 20.9 0.00 0.18 0.00 36 1019.8
20260502183511 23 30 6.4 19.3 0.00 0.18 0.00 32 1019.8
20260502183020 23 9 8.0 19.3 0.00 0.18 0.00 34 1019.8
20260502182544 23 18 6.4 17.7 0.00 0.18 0.00 35 1019.8
20260502182022 23 20 6.4 17.7 0.00 0.18 0.00 36 1020.0
20260502181522 23 10 6.4 14.5 0.00 0.18 0.00 34 1020.0
20260502180511 23 1 6.4 16.1 0.00 0.20 0.00 34 1020.2
20260502170512 22 72 4.8 16.1 0.00 0.33 0.00 43 1020.7
20260502164011 22 3 4.8 16.1 0.00 0.41 0.00 44 1020.8
20260502163511 21 29 4.8 11.3 0.00 0.43 0.00 46 1020.8
20260502163011 21 71 4.8 11.3 0.00 0.43 0.00 47 1020.8
20260502162511 21 86 4.8 11.3 0.00 0.46 0.00 47 1020.8
20260502162011 21 86 6.4 19.3 0.00 0.48 0.00 49 1020.8
20260502161511 21 75 6.4 19.3 0.00 0.51 0.00 45 1020.8
20260502161011 20 63 4.8 14.5 0.00 0.51 0.00 50 1020.8
20260502160533 20 38 6.4 14.5 0.00 0.53 0.00 49 1020.8
20260502152011 18 69 4.8 11.3 0.00 0.64 0.00 61 1020.5
20260502151532 18 81 4.8 16.1 0.00 0.64 0.00 63 1020.5
20260502151011 18 72 4.8 16.1 0.00 0.64 0.00 63 1020.4
20260502150511 17 53 4.8 11.3 0.00 0.64 0.00 63 1020.3
20260502130512 12 360 3.2 8.0 0.00 0.91 0.00 86 1019.5
20260502123511 11 352 4.8 9.7 0.00 1.12 0.00 87 1019.1
20260502123011 11 12 3.2 9.7 0.00 1.14 0.00 87 1018.9
20260502122511 11 359 3.2 8.0 0.00 1.17 0.00 87 1018.9
20260502122032 11 349 3.2 8.0 0.00 1.17 0.00 87 1018.7
20260502121511 11 342 1.6 8.0 0.00 1.19 0.00 87 1018.7
20260502121011 11 346 3.2 9.7 0.00 1.27 0.00 87 1018.7
20260502120511 11 355 3.2 9.7 0.00 1.37 0.00 87 1018.5
20260502115533 11 349 3.2 4.8 0.00 1.37 0.00 87 1018.2
20260502115011 11 360 3.2 6.4 0.00 1.37 0.00 87 1018.1
20260502114011 11 353 1.6 6.4 0.00 1.37 0.00 87 1018.0
20260502113511 11 342 1.6 6.4 0.00 1.37 0.00 87 1017.8
20260502113011 11 334 1.6 8.0 0.00 1.37 0.00 87 1017.8
20260502112511 11 331 1.6 8.0 0.00 1.37 0.00 87 1017.7
20260502112032 11 326 1.6 6.4 0.00 1.37 0.00 87 1017.7
20260502111511 12 331 3.2 6.4 0.00 1.37 0.00 87 1017.7
20260502111011 12 340 3.2 6.4 0.00 1.37 0.00 87 1017.6
20260502110511 12 349 3.2 6.4 0.00 1.37 0.00 87 1017.4
20260502110011 12 346 3.2 6.4 0.00 1.37 0.00 87 1017.3
20260502105511 12 338 3.2 8.0 0.00 1.37 0.00 87 1017.2
20260502105011 12 337 3.2 8.0 0.00 1.37 0.00 87 1017.2
20260502104511 12 343 3.2 9.7 0.00 1.37 0.00 87 1017.2
20260502104011 12 345 3.2 9.7 0.00 1.37 0.00 87 1017.1
20260502103511 12 342 3.2 6.4 0.00 1.37 0.00 87 1017.1
20260502103011 12 348 3.2 8.0 0.00 1.37 0.00 87 1017.1
20260502102511 12 341 3.2 8.0 0.00 1.37 0.00 87 1017.0
20260502102011 12 342 3.2 6.4 0.00 1.37 0.00 87 1016.9
20260502101511 12 359 1.6 6.4 0.00 1.37 0.00 87 1017.0
20260502101012 12 360 1.6 4.8 0.00 1.37 0.00 87 1017.0
20260502100511 12 340 3.2 6.4 0.00 1.37 0.00 87 1016.8
20260502091511 12 320 1.6 4.8 0.00 1.37 0.00 87 1016.6
20260502091011 12 329 1.6 4.8 0.00 1.37 0.00 87 1016.6
20260502090511 12 330 3.2 6.4 0.00 1.37 0.00 87 1016.6
20260502071511 13 23 1.6 6.4 0.00 1.37 0.00 87 1016.3
20260502071011 13 359 1.6 6.4 0.00 1.37 0.00 87 1016.5
20260502070511 13 337 1.6 4.8 0.00 1.37 0.00 87 1016.5
20260502070011 13 341 1.6 3.2 0.00 1.37 0.00 87 1016.6
20260502065511 13 342 1.6 3.2 0.00 1.37 0.00 87 1016.6
20260502065011 13 350 1.6 6.4 0.00 1.37 0.00 87 1016.6
20260502064511 13 355 1.6 6.4 0.00 1.37 0.00 87 1016.7
20260502064011 13 7 1.6 6.4 0.00 1.37 0.00 87 1016.7
20260502063511 13 17 1.6 6.4 0.00 1.37 0.00 87 1016.7
20260502063032 13 21 1.6 3.2 0.00 1.37 0.00 87 1016.8
20260502062511 13 9 1.6 4.8 0.00 1.37 0.00 87 1016.8
20260502062011 13 359 1.6 6.4 0.00 1.37 0.00 87 1017.0
20260502061511 13 356 1.6 6.4 0.00 1.37 0.00 87 1017.1
20260502061011 13 353 0.0 3.2 0.00 1.37 0.00 87 1017.1
20260502060511 13 352 0.0 3.2 0.00 1.37 0.00 87 1017.1
20260502060011 13 351 0.0 3.2 0.00 1.37 0.00 87 1017.1
20260502055511 13 351 1.6 4.8 0.00 1.37 0.00 87 1017.1
20260502055011 13 351 1.6 4.8 0.03 1.37 0.00 87 1017.2
20260502054511 13 351 0.0 3.2 0.03 1.37 0.00 87 1017.1
20260502054011 13 352 1.6 6.4 0.03 1.37 0.00 87 1017.1
20260502053511 13 341 1.6 6.4 0.03 1.37 0.00 87 1017.1
20260502053011 13 324 0.0 4.8 0.03 1.37 0.00 87 1016.8
20260502052511 13 0 0.0 0.0 0.03 1.37 0.00 87 1016.8
20260502052011 13 0 0.0 0.0 0.03 1.37 0.00 87 1016.9
20260502051532 13 0 0.0 0.0 0.03 1.37 0.00 87 1017.1
20260502051011 13 0 0.0 0.0 0.03 1.37 0.00 87 1017.5
20260502050511 13 0 0.0 0.0 0.03 1.37 0.00 87 1017.5
20260502050011 13 0 0.0 0.0 0.03 1.37 0.00 87 1017.2
20260502045532 13 0 0.0 0.0 0.03 1.37 1.37 87 1017.1
20260502045011 13 0 0.0 0.0 0.00 1.35 1.35 87 1017.1
20260502044511 13 0 0.0 0.0 0.00 1.35 1.35 87 1017.1
20260502044012 13 0 0.0 0.0 0.00 1.35 1.35 87 1017.2
20260502043532 13 314 0.0 1.6 0.00 1.35 1.35 87 1017.0
20260502043011 13 314 0.0 1.6 0.00 1.35 1.35 87 1017.1
20260502042511 13 314 0.0 1.6 0.03 1.35 1.35 87 1017.0
20260502042011 13 314 0.0 1.6 0.03 1.35 1.35 87 1017.0
20260502041511 13 314 0.0 1.6 0.03 1.35 1.35 86 1016.7
20260502041011 13 314 0.0 1.6 0.03 1.35 1.35 87 1016.6
20260502040511 13 314 0.0 1.6 0.03 1.35 1.35 86 1016.7
20260502040011 13 314 0.0 3.2 0.03 1.35 1.35 86 1016.9
20260502035532 13 314 0.0 3.2 0.03 1.35 1.35 87 1017.0
20260502035011 13 313 0.0 1.6 0.03 1.35 1.35 86 1017.3
20260502034532 13 313 0.0 4.8 0.03 1.35 1.35 86 1017.6
20260502034011 13 312 1.6 4.8 0.03 1.35 1.35 86 1017.2
20260502033511 13 320 1.6 4.8 0.03 1.35 1.35 86 1017.2
20260502033011 13 332 1.6 4.8 0.03 1.35 1.35 86 1017.6
20260502032511 13 348 0.0 3.2 0.00 1.32 1.32 86 1017.1
20260502032011 13 346 0.0 1.6 0.00 1.32 1.32 86 1017.0
20260502031532 13 346 0.0 1.6 0.00 1.32 1.32 86 1017.1
20260502031011 13 346 0.0 1.6 0.00 1.32 1.32 86 1016.9
20260502030511 13 346 0.0 3.2 0.00 1.32 1.32 86 1016.6
20260502030011 13 346 0.0 3.2 0.00 1.32 1.32 86 1016.5
20260502025511 13 346 0.0 1.6 0.03 1.32 1.32 86 1016.3
20260502025032 13 346 0.0 1.6 0.03 1.32 1.32 86 1016.3
20260502024511 13 346 0.0 3.2 0.03 1.32 1.32 86 1016.3
20260502024011 13 346 1.6 3.2 0.03 1.32 1.32 86 1016.4
20260502023511 13 346 0.0 3.2 0.03 1.32 1.32 85 1016.1
20260502023011 13 346 0.0 1.6 0.03 1.32 1.32 86 1015.8
20260502022511 13 0 0.0 0.0 0.03 1.32 1.32 85 1015.5
20260502022011 13 0 0.0 0.0 0.05 1.32 1.32 85 1015.5
20260502021511 13 0 0.0 0.0 0.05 1.32 1.32 85 1015.6
20260502021011 13 0 0.0 0.0 0.05 1.32 1.32 85 1015.5
20260502020511 13 0 0.0 0.0 0.05 1.32 1.32 85 1015.4
20260502020011 13 0 0.0 0.0 0.05 1.32 1.32 86 1015.3
20260502015532 13 0 0.0 0.0 0.03 1.30 1.30 86 1015.5
20260502015011 13 48 0.0 3.2 0.03 1.30 1.30 86 1015.2
20260502014511 13 48 0.0 3.2 0.03 1.30 1.30 86 1015.4
20260502014032 13 49 0.0 3.2 0.03 1.32 1.30 86 1015.2
20260502013532 13 49 0.0 1.6 0.03 1.32 1.30 86 1015.2
20260502013011 13 49 0.0 3.2 0.03 1.32 1.30 85 1015.2
20260502012511 13 49 0.0 3.2 0.03 1.32 1.30 85 1015.1
20260502012011 13 0 0.0 0.0 0.00 1.32 1.27 85 1015.3
20260502011511 13 0 0.0 0.0 0.00 1.32 1.27 85 1015.3
20260502011011 13 63 0.0 1.6 0.00 1.32 1.27 85 1015.2
20260502010511 13 63 0.0 1.6 0.00 1.32 1.27 85 1015.3
20260502010011 13 63 0.0 1.6 0.00 1.35 1.27 85 1015.5
20260502005512 13 0 0.0 0.0 0.00 1.35 1.27 85 1016.0
20260502005032 13 0 0.0 0.0 0.00 1.35 1.27 85 1016.1
20260502004511 13 0 0.0 0.0 0.00 1.35 1.27 85 1016.1
20260502004011 13 0 0.0 0.0 0.00 1.37 1.27 85 1016.1
20260502003511 13 0 0.0 0.0 0.00 1.37 1.27 85 1016.1
20260502003011 13 0 0.0 0.0 0.00 1.37 1.27 85 1016.0
20260502002532 14 0 0.0 0.0 0.00 1.40 1.27 84 1016.1
20260502002011 14 0 0.0 0.0 0.00 1.40 1.27 84 1016.0
20260502001511 14 0 0.0 0.0 0.00 1.42 1.27 84 1016.0
20260502001032 14 63 0.0 1.6 0.00 1.42 1.27 84 1015.9
20260502000511 14 63 0.0 1.6 0.00 1.45 1.27 84 1015.8
20260502000011 14 0 0.0 0.0 0.00 1.45 1.27 84 1015.8
20260501235511 14 0 0.0 0.0 0.00 1.45 1.27 84 1015.6
20260501235011 14 0 0.0 0.0 0.00 1.45 1.27 84 1015.5
20260501234532 14 0 0.0 0.0 0.00 1.47 1.27 84 1015.7
20260501234011 14 0 0.0 0.0 0.00 1.47 1.27 84 1015.8
20260501233532 14 45 0.0 1.6 0.00 1.47 1.27 84 1015.7
20260501233011 14 45 0.0 1.6 0.00 1.50 1.27 84 1015.7
20260501232511 14 0 0.0 0.0 0.00 1.50 1.27 84 1015.6
20260501232011 14 0 0.0 0.0 0.00 1.52 1.27 84 1015.5
20260501231511 14 45 0.0 1.6 0.00 1.52 1.27 84 1015.5
20260501231011 14 45 0.0 1.6 0.00 1.55 1.27 84 1015.5
20260501230511 14 56 0.0 1.6 0.00 1.55 1.27 84 1015.4
20260501230011 14 56 0.0 1.6 0.00 1.55 1.27 84 1015.5
20260501225511 14 56 0.0 4.8 0.00 1.57 1.27 84 1015.1
20260501225011 14 56 1.6 4.8 0.00 1.57 1.27 84 1015.0
20260501224511 14 62 1.6 6.4 0.00 1.60 1.27 84 1015.1
20260501224011 14 79 1.6 6.4 0.00 1.60 1.27 84 1015.1
20260501223511 14 75 1.6 8.0 0.00 1.63 1.27 84 1014.9
20260501223032 14 66 3.2 9.7 0.00 1.63 1.27 84 1014.8
20260501222511 14 70 3.2 16.1 0.00 1.65 1.27 85 1014.6
20260501222011 15 73 3.2 14.5 0.00 1.68 1.27 85 1014.0
20260501221511 14 69 1.6 9.7 0.00 1.70 1.27 86 1013.9
20260501221011 15 66 3.2 16.1 0.00 1.78 1.27 86 1014.0
20260501220532 15 63 4.8 16.1 0.00 1.78 1.27 86 1014.0
20260501215511 15 66 6.4 17.7 0.00 1.78 1.27 86 1013.5
20260501215011 15 70 6.4 17.7 0.00 1.78 1.27 86 1013.1
20260501214511 15 76 4.8 17.7 0.00 1.78 1.27 87 1013.0
20260501214011 15 57 4.8 11.3 0.00 1.78 1.27 87 1013.4
20260501213511 15 42 4.8 12.9 0.00 1.78 1.27 87 1013.4
20260501213011 15 58 3.2 12.9 0.00 1.78 1.27 87 1013.4
20260501212532 15 97 4.8 14.5 0.00 1.78 1.27 87 1013.0
20260501212011 15 97 4.8 14.5 0.03 1.78 1.27 87 1012.5
20260501211512 15 87 4.8 16.1 0.03 1.78 1.27 87 1012.8
20260501211011 15 86 6.4 19.3 0.03 1.78 1.27 88 1013.0
20260501210511 15 86 6.4 19.3 0.03 1.78 1.27 88 1013.0
20260501210011 15 85 6.4 16.1 0.03 1.78 1.27 88 1013.1
20260501205511 15 82 4.8 14.5 0.03 1.78 1.27 88 1013.4
20260501205011 15 77 4.8 14.5 0.03 1.78 1.27 88 1013.5